Wind_Speed
10 10 5 6 9 9 13 11 16 16 13 10 13 12 12 11 15 4 21 20 20 18 18 17 16 15 14 14 17 19 20 22 23 28 29 34 34 34 32 31 29 27 25 23 22 21 21 19 17
6 6 9 6 9 14 12 13 12 11 11 9 10 9 10 15 9 14 22 22 20 17 18 17 16 14 13 15 17 19 21 22 24 28 32 34 32 31 30 31 28 24 23 20 19 18 16 14 13
5 8 9 8 7 8 14 9 9 8 9 5 14 13 11 10 11 23 21 21 20 17 16 17 16 15 13 13 16 19 22 23 24 34 32 29 29 29 29 28 26 22 19 18 17 14 13 14 12
5 7 6 9 11 9 8 7 3 8 9 9 9 10 13 14 19 19 19 19 18 17 16 14 14 14 13 13 16 18 21 24 26 31 28 27 27 26 25 23 22 20 17 17 15 15 17 17 18
4 1 5 13 11 11 7 6 6 8 6 3 6 11 18 20 17 18 17 17 16 16 16 15 14 13 14 14 16 18 21 23 24 25 25 25 25 24 22 20 19 18 16 15 16 17 19 18 18
4 4 13 9 13 9 7 5 7 9 10 7 7 15 20 18 16 18 17 17 16 13 15 15 15 16 16 15 15 17 21 23 22 22 23 23 22 20 19 17 16 16 15 15 17 17 18 20 24
12 14 5 1 12 11 9 8 2 8 9 11 8 15 21 21 20 19 18 16 16 15 15 14 16 18 17 16 16 17 19 22 22 21 20 19 18 17 16 16 15 15 15 15 17 18 24 25 26
21 7 1 7 11 11 9 10 2 6 8 9 5 7 22 24 21 19 18 18 16 16 15 14 15 16 16 16 17 18 19 19 20 21 20 18 16 15 15 15 16 16 16 16 17 24 27 28 28
12 5 7 10 9 11 12 13 7 2 4 5 7 14 21 24 20 18 19 20 19 18 16 16 15 15 14 15 18 19 20 20 20 20 19 18 16 15 15 15 16 16 16 15 21 26 27 28 29
4 4 12 12 13 17 10 14 6 6 3 4 11 18 20 22 15 14 18 18 17 16 17 16 15 15 15 15 18 19 20 19 19 18 17 18 18 17 16 16 16 16 14 16 23 27 27 27 27
8 15 8 17 16 19 14 15 8 3 8 6 4 16 23 20 16 12 17 15 15 16 15 16 16 15 14 15 18 20 20 19 19 18 18 19 19 18 17 16 15 14 14 17 27 26 26 26 24
10 9 3 20 19 15 17 13 15 6 9 6 6 10 18 18 14 14 16 18 16 16 16 15 16 15 15 16 17 20 20 20 19 19 19 18 18 18 18 16 15 13 11 17 26 26 25 24 23
10 8 4 21 20 18 14 18 20 9 8 3 5 9 14 18 16 17 14 16 14 16 15 13 13 13 16 17 17 19 20 20 19 19 19 18 18 18 18 17 14 12 15 20 23 23 23 22 22
6 11 4 18 21 13 13 12 21 14 11 6 3 8 12 15 21 20 19 16 14 15 15 13 12 15 18 18 17 18 20 20 20 21 21 20 19 19 19 17 14 13 18 24 22 22 21 20 23
4 9 3 10 11 9 11 14 19 12 12 8 5 10 12 15 16 16 16 16 15 15 15 14 17 15 16 22 20 15 18 22 20 20 21 20 18 19 17 15 14 17 24 23 23 23 23 23 24
6 7 2 9 11 13 11 11 12 12 12 9 7 12 13 15 13 15 13 15 17 16 19 20 18 15 15 20 16 20 19 22 22 21 21 20 20 19 17 16 20 19 24 23 25 23 22 22 24
4 8 5 10 6 10 14 6 7 10 12 10 11 16 15 15 15 13 14 15 15 15 14 18 19 20 18 19 12 22 22 21 23 23 22 21 19 18 19 20 19 22 23 25 24 22 22 22 24
8 12 11 10 12 11 10 13 13 12 14 14 13 17 18 16 12 12 11 13 15 16 16 15 17 20 20 15 17 21 26 26 25 24 23 21 19 18 17 18 18 21 22 24 22 19 19 20 22
12 13 17 14 17 22 14 12 18 17 19 20 20 20 20 18 12 10 10 11 14 16 17 17 16 16 21 17 20 21 25 27 27 25 23 21 19 17 17 16 17 19 23 23 21 19 17 18 20
9 14 15 15 16 19 21 15 19 21 19 20 17 20 21 20 21 16 15 14 15 17 18 18 18 18 17 18 19 21 23 26 27 26 25 21 18 17 16 15 17 20 21 22 21 18 17 18 19
13 12 16 19 20 18 22 17 14 23 23 23 26 20 23 22 23 23 19 17 16 21 21 21 21 21 20 20 22 26 27 26 25 24 22 21 19 17 14 12 12 18 23 25 23 20 19 17 16
18 14 17 18 17 15 15 18 18 14 24 31 28 27 26 23 26 26 21 20 19 19 22 23 23 23 23 24 24 26 26 25 23 20 20 19 17 17 16 13 10 11 20 24 24 22 18 19 18
22 20 20 21 22 20 21 13 21 21 21 28 27 30 33 27 25 26 25 20 17 19 23 25 26 25 25 25 24 25 27 24 22 21 21 22 20 16 13 14 12 9 12 22 24 22 19 18 17
17 22 23 22 18 11 23 19 25 25 27 27 33 34 36 32 31 27 24 23 21 19 22 26 30 29 29 27 25 25 26 25 23 22 20 20 20 19 18 16 13 12 11 16 21 22 20 19 18
11 11 8 6 2 7 9 15 28 20 18 19 23 24 31 38 32 32 30 31 28 25 24 27 28 29 28 28 25 26 28 28 26 25 21 19 19 19 17 16 15 12 12 14 19 23 23 22 20
19 10 2 4 3 10 27 10 12 21 25 27 23 26 24 37 34 31 24 26 29 28 25 26 29 28 27 26 25 24 27 28 27 28 24 21 19 17 18 18 18 17 16 14 15 18 22 25 23
15 10 16 15 21 15 11 30 32 26 25 22 25 26 29 34 37 30 25 23 28 30 27 24 25 27 30 26 25 26 28 29 27 24 25 23 23 21 20 19 18 18 18 17 19 19 19 23 25
8 17 7 6 3 5 7 15 21 19 20 23 28 27 27 28 34 33 30 25 23 28 27 23 21 23 26 29 28 28 27 28 27 27 25 23 24 25 23 21 20 19 18 19 19 19 20 21 22
20 13 5 9 9 3 5 7 15 23 23 24 30 27 25 31 30 28 28 25 22 23 28 26 23 20 27 29 28 29 29 28 30 28 25 22 23 26 23 21 21 19 19 18 18 17 19 20 22
14 6 13 4 7 22 15 21 24 25 29 26 24 23 20 32 35 35 39 30 21 25 30 29 26 25 24 27 28 29 30 30 29 27 27 25 25 26 21 19 17 18 16 17 15 15 17 19 21
Wind_Direction
122 97 91 88 97 107 113 138 138 140 139 150 164 170 156 162 150 182 155 147 141 142 141 139 134 128 121 114 111 105 98 93 99 113 115 116 120 114 115 115 116 113 110 108 105 101 96 91 87
123 96 100 96 111 117 114 130 115 83 80 155 185 206 204 177 180 163 154 144 137 147 146 142 139 133 129 119 113 112 108 103 101 113 114 115 110 114 116 120 118 117 109 105 96 89 88 91 87
131 101 113 107 105 119 131 137 107 90 63 35 184 189 211 191 155 155 151 141 139 146 145 146 144 137 135 126 120 118 118 115 105 114 114 117 114 115 118 122 119 112 109 100 90 86 79 76 81
127 90 89 107 130 137 127 114 87 82 84 90 127 150 146 133 149 151 149 141 143 147 145 145 141 137 138 134 125 123 125 124 114 115 121 120 118 118 119 118 115 112 107 96 92 91 89 94 97
121 30 106 116 119 165 152 116 79 39 27 90 167 140 133 138 148 147 144 141 146 152 152 147 141 137 139 138 132 131 133 134 128 126 126 124 121 120 119 118 114 112 99 98 100 96 101 103 97
178 167 127 107 133 151 155 118 65 63 61 75 156 152 136 140 144 146 145 147 147 157 157 151 145 140 141 141 139 139 139 142 136 133 130 128 124 124 119 113 111 102 102 104 100 104 109 101 96
151 136 119 144 181 169 176 151 51 29 46 82 150 151 145 139 149 152 150 151 150 157 157 158 151 146 145 145 144 144 144 144 144 138 135 132 130 127 119 113 106 107 106 103 103 104 104 103 101
154 174 122 139 169 179 183 160 107 10 41 96 120 191 155 145 145 152 153 152 155 155 155 157 154 149 149 148 149 147 147 147 148 148 145 143 141 133 122 118 118 117 113 111 110 113 109 107 102
178 202 151 146 131 173 158 176 154 1 349 109 106 156 160 153 153 150 159 157 158 154 155 159 159 154 151 148 149 150 149 150 152 154 154 151 146 136 130 127 124 118 115 115 117 115 113 106 99
9 251 235 144 130 153 176 193 314 358 50 81 134 164 155 157 146 146 160 157 155 154 156 160 163 160 154 150 147 150 151 150 152 154 156 152 145 140 139 132 124 121 119 111 123 123 113 106 106
19 19 151 161 152 166 184 196 234 5 22 56 77 158 148 153 149 152 151 152 153 158 160 160 163 163 163 153 154 155 152 150 154 153 152 149 145 144 141 135 129 125 111 116 130 122 114 112 111
348 351 170 191 186 169 176 187 220 253 326 53 105 149 150 147 150 162 164 162 158 160 166 164 162 164 164 162 163 163 158 154 153 148 149 149 148 146 146 142 137 130 124 129 133 124 120 118 113
320 350 135 182 173 169 186 207 220 240 268 344 160 155 151 142 146 157 161 160 164 167 155 161 160 160 160 165 171 170 165 159 154 150 150 152 151 150 147 142 142 133 134 141 134 127 126 121 113
56 357 244 203 195 173 192 210 209 219 248 270 189 170 159 147 154 159 167 168 156 160 156 162 151 154 153 149 154 166 167 163 160 154 152 156 154 152 144 144 139 143 144 143 138 134 132 125 116
355 340 102 181 236 183 185 201 209 254 236 259 219 187 167 161 165 158 166 162 157 155 160 170 162 150 144 145 142 156 163 160 160 155 157 159 156 151 150 147 147 153 147 146 143 144 143 132 125
324 316 355 115 162 171 183 220 233 224 228 231 236 201 181 171 170 159 158 154 155 153 146 148 156 170 164 157 147 148 149 157 158 159 159 159 161 155 153 153 152 156 151 153 151 150 142 137 133
73 18 325 103 13 206 227 267 244 229 232 234 238 214 200 177 178 178 163 165 165 161 164 159 157 151 152 159 160 157 153 156 157 158 160 162 162 163 163 157 161 162 158 157 157 152 145 144 145
337 331 344 257 322 289 235 251 263 245 237 235 236 225 215 200 182 182 172 173 175 175 173 172 171 166 166 162 168 163 155 157 160 161 161 164 168 167 166 160 163 168 166 164 160 157 154 155 156
308 316 312 306 311 287 285 253 247 256 237 234 233 233 231 217 203 205 200 187 189 192 186 180 182 184 176 178 173 174 166 162 163 164 163 168 171 168 175 165 161 165 172 171 168 166 166 166 166
295 304 305 308 319 288 270 286 245 253 268 255 250 241 236 224 215 219 214 207 200 203 198 192 184 190 182 174 179 182 176 171 168 169 167 170 172 178 182 177 174 175 177 180 177 177 178 177 174
273 287 314 323 325 315 262 259 263 251 255 255 242 249 246 242 229 225 222 212 205 202 204 201 194 195 194 193 186 190 185 182 179 176 176 173 173 180 187 189 190 191 187 188 187 188 184 183 187
286 293 305 305 327 310 269 258 271 262 267 252 242 239 238 237 234 234 231 226 211 201 205 208 206 205 200 195 199 197 192 190 186 180 178 175 177 184 192 196 201 202 197 193 193 196 193 194 197
291 288 295 298 307 297 285 258 266 271 269 260 256 246 242 237 238 236 231 226 224 211 206 206 209 208 211 212 199 199 199 194 192 190 187 186 189 194 196 200 201 199 197 200 205 206 210 207 205
307 291 292 292 286 257 272 255 277 256 273 270 271 266 248 240 236 238 239 231 227 222 215 210 209 211 214 215 210 202 200 196 200 204 204 204 200 202 205 201 202 202 206 207 211 215 217 218 219
319 297 335 307 258 230 265 274 247 275 275 272 274 268 253 242 237 235 233 229 223 220 215 213 211 213 217 220 220 209 202 204 205 207 207 214 212 209 209 213 211 214 216 215 217 220 223 227 232
337 9 219 259 241 287 289 260 265 268 283 275 280 282 269 246 237 236 233 227 220 216 216 219 218 218 220 221 220 218 211 215 217 209 206 215 214 212 214 216 217 215 215 216 225 227 227 231 234
323 329 317 276 274 277 259 282 285 267 266 274 276 275 274 253 244 236 235 225 225 218 216 221 223 222 227 225 222 219 217 217 219 225 214 220 214 212 211 212 218 220 225 224 220 225 229 231 234
309 314 331 287 273 269 258 267 271 278 286 267 289 287 251 245 243 238 237 229 225 224 220 222 228 232 232 232 228 226 223 222 225 232 233 229 226 214 214 217 222 225 227 234 238 235 233 233 234
306 328 347 309 282 249 308 259 290 284 313 286 279 286 246 231 234 234 234 237 230 228 226 223 229 237 230 231 232 229 227 227 226 227 229 224 226 221 219 220 230 229 237 239 240 240 242 244 244
282 35 13 5 300 303 276 282 290 281 282 300 276 280 254 225 231 235 236 237 232 225 228 223 228 233 237 232 231 227 226 230 232 228 230 225 224 227 235 234 227 217 228 241 239 243 245 249 251
Height
3157 3158 3159 3159 3163 3159 3160 3162 3161 3161 3163 3163 3164 3164 3165 3164 3165 3170 3169 3170 3172 3175 3177 3179 3181 3181 3181 3181 3182 3183 3184 3184 3183 3184 3184 3186 3187 3189 3192 3194 3196 3198 3200 3202 3202 3202 3201 3202 3203
3159 3160 3159 3160 3163 3160 3163 3163 3163 3164 3164 3164 3164 3165 3165 3165 3165 3166 3168 3171 3173 3177 3179 3180 3182 3183 3183 3183 3184 3186 3187 3187 3187 3187 3189 3191 3192 3194 3196 3199 3200 3202 3203 3204 3205 3205 3205 3205 3204
3160 3160 3161 3162 3163 3162 3162 3165 3165 3164 3164 3164 3164 3164 3165 3165 3165 3168 3171 3172 3174 3178 3180 3181 3183 3184 3184 3186 3187 3189 3191 3191 3191 3191 3193 3196 3197 3199 3201 3202 3204 3206 3206 3207 3208 3208 3208 3206 3207
3161 3162 3163 3163 3163 3164 3163 3164 3166 3164 3165 3166 3165 3165 3166 3167 3168 3170 3173 3174 3177 3179 3181 3182 3184 3185 3186 3187 3189 3191 3193 3195 3195 3196 3198 3200 3202 3203 3204 3205 3206 3208 3209 3210 3210 3210 3209 3209 3209
3162 3162 3163 3163 3164 3164 3166 3166 3166 3165 3165 3166 3167 3166 3166 3168 3171 3173 3175 3176 3179 3181 3182 3183 3185 3187 3188 3189 3191 3192 3195 3197 3198 3199 3202 3204 3205 3206 3207 3208 3209 3210 3210 3212 3211 3212 3212 3212 3212
3162 3164 3166 3166 3166 3166 3166 3167 3168 3167 3166 3166 3166 3167 3167 3170 3173 3174 3176 3178 3180 3183 3184 3184 3186 3187 3190 3191 3193 3195 3197 3198 3200 3203 3205 3207 3208 3209 3210 3211 3212 3212 3213 3215 3215 3216 3215 3215 3214
3161 3163 3166 3167 3168 3167 3167 3170 3171 3169 3167 3167 3169 3167 3169 3171 3173 3175 3177 3179 3181 3183 3186 3187 3187 3189 3191 3193 3194 3197 3199 3201 3203 3205 3207 3209 3210 3211 3212 3213 3214 3215 3216 3217 3218 3217 3218 3218 3217
3163 3165 3166 3168 3167 3170 3170 3172 3173 3171 3170 3169 3171 3170 3168 3171 3173 3175 3177 3180 3182 3184 3186 3187 3189 3190 3191 3193 3195 3198 3200 3202 3204 3206 3208 3210 3211 3212 3214 3215 3217 3218 3219 3220 3220 3220 3220 3220 3221
3167 3166 3167 3170 3171 3170 3174 3173 3172 3173 3172 3171 3171 3172 3171 3172 3174 3177 3179 3180 3183 3184 3186 3188 3189 3190 3192 3194 3196 3198 3201 3203 3206 3208 3210 3211 3213 3215 3216 3218 3219 3221 3222 3223 3222 3222 3223 3223 3223
3170 3167 3169 3173 3172 3171 3173 3175 3175 3175 3173 3173 3172 3173 3173 3174 3176 3179 3180 3182 3183 3185 3187 3189 3190 3191 3193 3195 3197 3200 3202 3204 3207 3209 3211 3212 3214 3216 3218 3220 3222 3223 3224 3223 3224 3226 3226 3226 3227
3168 3167 3168 3173 3173 3173 3174 3175 3176 3176 3175 3174 3175 3175 3174 3176 3177 3180 3181 3184 3186 3187 3189 3190 3191 3193 3195 3197 3198 3200 3203 3206 3208 3210 3212 3214 3216 3218 3220 3222 3223 3224 3225 3226 3227 3228 3229 3230 3231
3171 3170 3168 3169 3172 3174 3175 3176 3176 3177 3178 3176 3177 3178 3177 3177 3179 3180 3183 3184 3186 3188 3190 3191 3192 3194 3195 3197 3199 3202 3204 3207 3209 3212 3214 3216 3218 3219 3221 3223 3225 3226 3227 3229 3230 3231 3232 3234 3235
3172 3172 3169 3169 3171 3173 3173 3174 3176 3177 3177 3178 3178 3179 3179 3179 3181 3183 3185 3187 3188 3189 3191 3194 3194 3195 3196 3197 3200 3203 3206 3208 3211 3213 3215 3218 3220 3222 3223 3225 3227 3229 3230 3232 3233 3234 3236 3237 3237
3173 3174 3171 3169 3169 3174 3174 3174 3175 3178 3178 3178 3179 3180 3180 3181 3183 3184 3186 3188 3189 3190 3192 3194 3195 3196 3197 3198 3201 3204 3206 3209 3212 3214 3216 3219 3221 3224 3225 3227 3229 3231 3232 3234 3236 3237 3239 3239 3238
3173 3173 3174 3171 3164 3174 3177 3176 3174 3177 3177 3178 3178 3180 3181 3182 3184 3186 3188 3190 3191 3192 3193 3195 3197 3199 3200 3200 3202 3205 3207 3209 3213 3215 3217 3219 3223 3226 3227 3228 3230 3232 3234 3236 3237 3239 3240 3240 3239
3173 3174 3176 3175 3173 3174 3177 3176 3176 3175 3176 3176 3177 3179 3180 3182 3184 3187 3189 3191 3192 3194 3195 3196 3198 3200 3202 3203 3203 3205 3209 3211 3214 3217 3219 3221 3224 3226 3228 3230 3231 3233 3236 3237 3239 3240 3242 3242 3241
3173 3174 3176 3176 3175 3176 3174 3172 3174 3174 3175 3177 3178 3179 3180 3181 3183 3185 3188 3191 3194 3194 3197 3197 3198 3201 3203 3204 3206 3206 3209 3213 3215 3217 3220 3223 3226 3227 3228 3230 3232 3234 3236 3239 3241 3242 3242 3244 3244
3172 3173 3174 3173 3175 3173 3171 3171 3171 3173 3174 3176 3177 3178 3179 3180 3182 3185 3187 3190 3193 3195 3196 3198 3199 3199 3202 3205 3207 3208 3209 3212 3216 3218 3221 3224 3226 3228 3230 3230 3232 3235 3238 3241 3242 3243 3244 3245 3245
3170 3171 3171 3170 3172 3170 3169 3170 3170 3171 3174 3174 3176 3177 3177 3178 3181 3184 3186 3189 3191 3193 3195 3197 3198 3200 3202 3204 3207 3210 3212 3213 3215 3218 3221 3224 3227 3228 3231 3232 3234 3236 3239 3241 3243 3245 3246 3247 3248
3171 3171 3170 3168 3169 3167 3167 3166 3168 3168 3169 3172 3173 3175 3176 3177 3178 3180 3184 3186 3189 3193 3195 3196 3198 3200 3202 3205 3209 3211 3214 3215 3216 3218 3220 3223 3225 3228 3231 3233 3234 3236 3238 3240 3242 3245 3246 3247 3248
3167 3167 3167 3168 3164 3164 3165 3165 3165 3166 3167 3170 3172 3174 3174 3174 3175 3177 3180 3184 3187 3190 3193 3195 3197 3200 3201 3205 3206 3209 3212 3213 3216 3218 3220 3222 3224 3228 3231 3233 3234 3236 3237 3239 3241 3243 3245 3246 3248
3164 3166 3165 3163 3164 3164 3164 3161 3161 3163 3163 3163 3166 3168 3170 3171 3171 3174 3177 3180 3183 3188 3191 3193 3195 3198 3200 3202 3205 3207 3210 3213 3216 3219 3221 3223 3224 3227 3229 3231 3233 3235 3236 3238 3240 3243 3244 3244 3246
3161 3162 3162 3161 3160 3160 3160 3161 3156 3159 3158 3158 3159 3162 3165 3166 3167 3168 3172 3177 3182 3185 3188 3191 3193 3195 3197 3200 3203 3206 3208 3212 3215 3217 3219 3221 3224 3226 3228 3230 3232 3233 3235 3237 3240 3242 3243 3244 3246
3158 3156 3156 3157 3157 3155 3156 3158 3147 3152 3152 3153 3154 3156 3158 3160 3162 3165 3170 3175 3179 3181 3184 3187 3190 3193 3195 3198 3201 3204 3207 3209 3211 3214 3216 3219 3222 3224 3225 3228 3230 3232 3234 3236 3238 3239 3241 3242 3243
3155 3155 3155 3155 3153 3150 3153 3152 3145 3147 3148 3148 3149 3149 3151 3154 3157 3160 3164 3167 3173 3176 3180 3183 3186 3189 3191 3194 3198 3201 3205 3207 3209 3212 3214 3216 3218 3221 3224 3225 3227 3230 3232 3233 3234 3236 3238 3239 3241
3155 3156 3157 3158 3155 3148 3147 3142 3139 3143 3143 3145 3145 3145 3147 3149 3152 3154 3158 3162 3167 3172 3176 3180 3183 3186 3188 3191 3194 3199 3201 3204 3207 3209 3211 3213 3215 3218 3221 3222 3224 3226 3228 3230 3232 3233 3234 3236 3237
3154 3154 3155 3151 3148 3145 3141 3137 3136 3137 3138 3139 3140 3139 3140 3141 3145 3149 3152 3156 3161 3166 3170 3175 3179 3183 3185 3188 3191 3194 3197 3200 3203 3206 3208 3211 3213 3215 3217 3219 3221 3222 3224 3226 3227 3228 3229 3230 3232
3152 3152 3150 3148 3145 3143 3134 3133 3130 3134 3135 3134 3134 3133 3133 3135 3139 3144 3147 3152 3156 3162 3167 3172 3175 3178 3182 3184 3187 3190 3193 3196 3200 3202 3205 3208 3210 3211 3213 3215 3217 3219 3220 3222 3223 3224 3225 3225 3226
3145 3147 3148 3147 3146 3141 3136 3127 3130 3132 3131 3128 3127 3127 3128 3130 3134 3138 3143 3147 3152 3158 3162 3166 3170 3173 3175 3179 3183 3187 3190 3192 3195 3198 3201 3203 3206 3209 3210 3211 3214 3215 3217 3219 3219 3220 3221 3221 3222
3142 3146 3146 3143 3143 3141 3136 3122 3127 3128 3127 3126 3125 3122 3122 3126 3130 3134 3138 3143 3147 3151 3157 3160 3165 3169 3171 3175 3178 3181 3185 3188 3190 3193 3198 3200 3202 3205 3207 3209 3210 3212 3215 3216 3217 3217 3217 3217 3217